Voltar ao catálogo

YAOGAN 40-03-03

AtivoMilitarPO
NORAD 65546·PAYLOAD·🇨🇳 China
Este nome de satélite ainda não foi confirmado por fontes oficiais.

Lançado Sep 6, 2025 de Taiyuan Satellite Launch Center

Loading…

Próximas Passagens (próximas 24 horas)

TLE

AtualizadoSource: Space-Track

Época: Sep 14, 2026, 14:02 UTC

1 65546U 25199C   26257.58474950  .00000140  00000-0  65412-4 0  9993
2 65546  85.9967   3.9695 0001925 107.5823 252.5571 14.12462446 52656

Acompanhe YAOGAN 40-03-03 em tempo real com AllMySat

Download on the App Store